www.pogodaiklimat.ru

Погода и климат >> Архив погоды >> Россия >> Оренбургская область >> Зерносовхоз Озерный


ПОГОДА в Зерносовхозе Озерном

  • Прогноз погоды в Зерносовхозе Озерном
  • Монитор погоды в Зерносовхозе Озерном

АРХИВ ПОГОДЫ в Зерносовхозе Озерном

Время (UTC), дата Ветер
(напр.,м/с)
 
Видим.   Явления Облачность Т
(С)
Тd
(С)
f
(%)
Тe
(С)
Тes
(С)
Комфортность P
(гПа)
Po
(гПа)
Тmin
(С)
Tmax
(С)
R
(мм)
R24
(мм)
S
(см)
18 14.07 ЮВ 3 10 км 9/0
[Ci sp]
+26.3 +3.9 24 +25 +25 комфорт 1003.4 968.6
21 14.07 В 5 10 км 9/0
[Cc]
+24.0 +4.9 29 +24 +24 комфорт 1002.5 967.3
00 15.07 В 4 20 км 9/0
[Ac lent]
+23.6 +7.1 35 +24 +24 комфорт 1001.2 966.0
03 15.07 ЮВ 5 20 км 9/9 660 м
[Sc diur, vesp]
+27.1 +6.6 27 +26 +27 жарко 999.1 964.4 +22.9
06 15.07 ЮЗ 7
{10}
20 км 3/0
[Ci fib]
+33.1 +9.4 23 +32 +36 жарко 998.3 964.3
09 15.07 ЮЗ 6-11
{11}
20 км ясно +32.7 +11.0 27 +33 +39 жарко 999.4 965.4
12 15.07 З 8-14
{15}
20 км ясно +29.5 +10.9 32 +30 +31 жарко 1001.5 967.0
15 15.07 З 8-12
{14}
20 км ясно +24.5 +10.2 40 +25 +26 комфорт 1004.2 969.1 +33.1
18 15.07 З 4
{12}
10 км ясно +17.8 +9.9 60 +18 +18 1006.8 970.8
21 15.07 З 7
{11}
10 км ясно +15.8 +9.5 66 +14 +14 1007.7 971.5
00 16.07 З 5
{11}
20 км ясно +12.8 +9.6 81 +11 +11 1009.4 972.7
03 16.07 СЗ 10-12
{14}
20 км ясно +18.5 +10.7 60 +18 +18 1010.3 974.2 +12.7
06 16.07 СЗ 8-14
{13}
20 км ясно +23.9 +9.4 40 +25 +27 комфорт 1009.9 974.5
09 16.07 СЗ 8-12
{14}
20 км ясно +27.4 +7.2 28 +27 +30 жарко 1009.4 974.4
12 16.07 СЗ 6-10
{13}
20 км ясно +29.5 +5.0 21 +28 +31 жарко 1008.9 974.1
15 16.07 СЗ 4
{10}
20 км ясно +28.0 +6.9 26 +27 +27 жарко 1009.5 974.6 +29.9
18 16.07 С 3 10 км ясно +17.9 +6.2 46 +18 +18 1012.0 975.8
21 16.07 С 2 10 км ясно +13.1 +5.7 61 +13 +13 1013.5 976.6
00 17.07 С 2 20 км ясно +12.1 +7.5 73 +11 +11 1014.6 977.6
03 17.07 В 4 20 км ясно +22.0 +10.9 49 +24 +27 комфорт 1014.0 978.3 +12.1
06 17.07 В 3 20 км 3/0
[Ci fib]
+26.5 +9.7 35 +27 +38 жарко 1013.2 978.0
09 17.07 В 3 20 км 9/0
[Ci fib]
+29.4 +7.6 25 +28 +39 жарко 1012.1 977.2
12 17.07 СВ 2 20 км ясно +30.9 +5.9 21 +29 +36 жарко 1010.6 976.0
15 17.07 ЮВ 1 20 км 9/0
[Ci sp]
+29.3 +7.3 25 +28 +29 жарко 1011.1 976.3 +31.3
18 17.07 В 2 10 км 9/0
[Ac lent]
+22.1 +4.6 32 +22 +22 комфорт 1011.4 975.7
21 17.07 В 3 10 км 9/0
[Ac lent]
+22.1 +5.6 34 +23 +23 комфорт 1011.2 975.5
00 18.07 В 2 20 км 9/0
[Ac lent]
+18.1 +5.8 44 +19 +19 1012.1 975.9
03 18.07 ЮВ 3 20 км ясно +23.9 +9.2 39 +25 +28 комфорт 1012.2 976.7 +17.0
06 18.07 Ю 4 20 км 9/0
[Cs]
+30.0 +8.2 26 +29 +37 жарко 1010.9 976.2
09 18.07 Ю 4 20 км 9/0
[Cs]
+33.0 +7.4 20 +31 +40 жарко 1009.9 975.5
12 18.07 ЮВ 2 20 км 8/0
[Cc]
+34.4 +6.2 17 +32 +38 жарко 1008.7 974.5
15 18.07 ЮВ 2 20 км 8/0
[Ac lent]
+30.9 +9.3 26 +30 +30 жарко 1009.0 974.4 +34.5
18 18.07 ЮВ 2 10 км 8/0
[Ac lent]
+23.0 +8.9 41 +24 +24 комфорт 1010.6 975.1
21 18.07 ЮВ 3 10 км 9/0
[Ac lent]
+21.9 +6.6 37 +23 +23 комфорт 1010.6 974.9
00 19.07 ЮВ 3 20 км 4/0
[Cc]
+19.1 +4.8 39 +20 +20 1011.1 975.1
03 19.07 Ю 2 20 км ясно +26.1 +8.6 33 +26 +31 жарко 1010.9 975.8 +18.3
06 19.07 Ю 5 20 км 9/0
[Ci fib]
+33.3 +7.5 20 +32 +38 жарко 1009.3 975.0
09 19.07 Ю 6
{11}
20 км 9/0
[Ci sp]
+35.5 +4.9 15 +33 +38 жарко 1008.3 974.3
12 19.07 ЮВ 3
{10}
20 км 10/10 700 м
[Sc]
+34.2 +6.0 17 +32 +32 жарко 1008.0 973.8
15 19.07 В 2 20 км 10/10 660 м
[Sc]
+31.4 +3.2 17 +29 +29 жарко 1008.2 973.6 +35.7
18 19.07 В 3 10 км 10/10 660 м
[Sc]
+29.1 +4.9 21 +27 +27 жарко 1008.5 973.7
21 19.07 ЮВ 5
{11}
10 км 9/9 630 м
[Sc]
+27.9 +6.6 26 +27 +27 жарко 1006.8 972.0
00 20.07 В 3 20 км 9/9 630 м
[Sc]
+25.3 +6.3 30 +25 +25 комфорт 1007.5 972.3
03 20.07 ЮВ 6-10
{11}
20 км 6/6 600 м
[Sc diur, vesp]
+27.6 +7.4 28 +27 +28 жарко 1006.9 972.0 +24.4
06 20.07 ЮВ 10-15
{16}
20 км ясно +32.7 +7.2 21 +31 +32 жарко 1005.0 970.8
09 20.07 ЮВ 8-12
{16}
20 км ясно +36.5 +7.5 17 +34 +37 очень
жарко
1003.0 969.3
12 20.07 Ю 4
{15}
20 км ясно +37.5 +9.5 18 +36 +41 очень
жарко
1001.1 967.5
15 20.07 Ю 3 20 км ясно +33.4 +10.1 24 +33 +33 жарко 1001.0 967.0 +38.1
18 20.07 Ю 4 10 км ясно +24.7 +10.4 41 +26 +26 жарко 1001.7 966.7
21 20.07 ЮЗ 5 20 км ясно +24.0 +13.2 51 +26 +26 жарко 1001.6 966.6
00 21.07 ЮЗ 7 20 км ясно +22.7 +15.1 62 +27 +27 душно 1001.6 966.4
03 21.07 З 10-13
{14}
20 км ясно +23.2 +12.2 50 +26 +26 жарко 1002.1 966.9 +22.1
06 21.07 СЗ 14-19
{19}
20 км ясно +25.6 +15.5 54 +29 +29 душно 1004.4 969.5
09 21.07 СЗ 12-17
{19}
20 км ясно +29.6 +11.6 33 +30 +30 жарко 1006.1 971.6
12 21.07 СЗ 10-14
{19}
20 км 9/9 660 м
[Cu hum]
+30.7 +9.8 27 +30 +30 жарко 1007.0 972.5
15 21.07 С 7
{15}
20 км ясно +27.6 +8.5 30 +27 +28 жарко 1008.4 973.4 +30.7

 

Местоположение метеостанции Зерносовхоз Озерный (Оренбургская область, Россия): широта 51.10 долгота 60.87 высота над уровнем моря 312 м.

В архиве по умолчанию представлена погода в Зерносовхозе Озерном за последнюю неделю. Архивные данные за месяц целиком и за предыдущие месяцы, начиная с января 2011 года, Вы можете получить, выбрав интересующий диапазон дат из раскрывающегося списка и нажав кнопку "Ввод!".


*Определитесь, кто Вы:
робот инопланетянин человек

Внимание! Время в таблицах - всемирное. Для получения местного времени необходимо прибавить поправку, которая равна 5 ч.

Смотрите также архив погоды в соседних городах и на ближайших метеорологических станциях:

Погода в Теренсае (Актюбинская область, Казахстан) (56 км)
Погода в Комсомольском (Костанайская область, Казахстан) (81 км)
Погода в Домбаровском (Оренбургская область, Россия) (100 км)
Погода в Айдырля (Оренбургская область, Россия) (117 км)
Погода в Аралколе (Актюбинская область, Казахстан) (128 км)
Погода в Баскудуке (Мангистауская область, Казахстан) (132 км)
Погода в Житикаре (Костанайская область, Казахстан) (137 км)
Погода в Карабутаке (Актюбинская область, Казахстан) (138 км)
Погода в Бредах (Челябинская область, Россия) (152 км)
Погода в Орске (Оренбургская область, Россия) (159 км)

Пояснения к столбцам:

Ветер - указаны скорость ветра в м/с - средняя за 10 мин, порывы в срок и между сроками (в фигурных скобках) и направление, откуда дует ветер: С - северный, СВ - северо-восточный, В - восточный, ЮВ - юго-восточный, Ю - южный, ЮЗ - юго-западный, З - западный, СЗ - северо-западный.
Видимость - горизонтальная дальность видимости в метрах или километрах. При видимости от 1 до 10 км при отсутствии осадков обычно наблюдается дымка, при ухудшении видимости до 1 км и менее - туман. В сухую погоду видимость может ухудшаться дымом, пылью или мглою.
Явления - указаны атмосферные явления, наблюдавшиеся в срок или в последний час перед сроком; фигурными скобками обозначены явления, наблюдавшиеся между сроками (за 1-3 часа до срока); квадратными скобками обозначены град или гололедные отложения с указанием их диаметра в мм.
Облачность - указаны через наклонную черту общая и нижняя облачность в баллах и высота нижней границы облаков в метрах; квадратными скобками обозначены формы облаков: Ci - перистые, Cs - перисто-слоистые, Cc - перисто-кучевые, Ac - высококучевые, As - высокослоистые, Sc - слоисто-кучевые, Ns - слоисто-дождевые, Cu - кучевые, Cb - кучево-дождевые. Подробнее классификацию облаков см. в Атласе облаков (PDF).
T - Температура воздуха - температура, измеренная на высоте 2 м над землей.
Td - Температура точки росы - температура, при понижении до которой содержащийся в воздухе водяной пар достигнет насыщения.
f - Относительная влажность воздуха - влажноcть воздуха, измеренная на высоте 2 м над землей.
Te - Эффективная температура - температура, которую ощущает одетый по сезону человек в тени. Характеристика душности погоды. При расчете учитывается влияние влажности воздуха и скорости ветра на теплоощущения человека.
Tes - Эффективная температура на солнце - температура, которую ощущает человек, с поправкой на солнечный нагрев. Характеристика знойности погоды. Зависит от высоты солнца над горизонтом, облачности и скорости ветра. Ночью, в пасмурную погоду, а также при ветре 12 м/с и более поправка равна нулю.
P - Атмосферное давление - приведенное к уровню моря атмосферное давление.
Po - Атмосферное давление - измеренное на уровне метеостанции атмосферное давление.
Tmin - Минимальная температура - минимум температуры воздуха на высоте 2 м над землей.
Tmax - Максимальная температура - максимум температуры воздуха на высоте 2 м над землей.
R - Количество осадков - Количество выпавших осадков за период времени, мм. При наведении курсора мыши на число - период времени, за который выпало указанное количество осадков.
R24 - Количество осадков - Количество выпавших осадков за 24 часа, мм.
S - Снежный покров - Высота снежного покрова, см. При наведении курсора мыши на число - состояние снежного покрова и степень покрытия местности в баллах.